Year,Month,Day,Hour,Minute,Value (Times are PST for temperature in C)
2013,07,23,00,00,16.60
2013,07,23,00,01,16.60
2013,07,23,00,02,16.60
2013,07,23,00,03,16.60
2013,07,23,00,04,16.60
2013,07,23,00,05,16.60
2013,07,23,00,06,16.60
2013,07,23,00,07,16.60
2013,07,23,00,08,16.60
2013,07,23,00,09,16.60
2013,07,23,00,10,16.50
2013,07,23,00,11,16.50
2013,07,23,00,12,16.50
2013,07,23,00,13,16.50
2013,07,23,00,14,16.50
2013,07,23,00,15,16.50
2013,07,23,00,16,16.50
2013,07,23,00,17,16.50
2013,07,23,00,18,16.40
2013,07,23,00,19,16.40
2013,07,23,00,20,16.40
2013,07,23,00,21,16.40
2013,07,23,00,22,16.40
2013,07,23,00,23,16.40
2013,07,23,00,24,16.30
2013,07,23,00,25,16.30
2013,07,23,00,26,16.30
2013,07,23,00,27,16.20
2013,07,23,00,28,16.20
2013,07,23,00,29,16.20
2013,07,23,00,30,16.20
2013,07,23,00,31,16.10
2013,07,23,00,32,16.10
2013,07,23,00,33,16.10
2013,07,23,00,34,16.10
2013,07,23,00,35,16.10
2013,07,23,00,36,16.10
2013,07,23,00,37,16.10
2013,07,23,00,38,16.00
2013,07,23,00,39,16.00
2013,07,23,00,40,16.00
2013,07,23,00,41,15.90
2013,07,23,00,42,15.90
2013,07,23,00,43,15.90
2013,07,23,00,44,15.90
2013,07,23,00,45,15.90
2013,07,23,00,46,15.90
2013,07,23,00,47,15.90
2013,07,23,00,48,15.90
2013,07,23,00,49,15.90
2013,07,23,00,50,15.90
2013,07,23,00,51,15.90
2013,07,23,00,52,15.90
2013,07,23,00,53,15.90
2013,07,23,00,54,15.90
2013,07,23,00,55,15.90
2013,07,23,00,56,15.90
2013,07,23,00,57,15.80
2013,07,23,00,58,15.80
2013,07,23,00,59,15.80
2013,07,23,01,00,15.80
2013,07,23,01,01,15.80
2013,07,23,01,02,15.80
2013,07,23,01,03,15.80
2013,07,23,01,04,15.80
2013,07,23,01,05,15.70
2013,07,23,01,06,15.70
2013,07,23,01,07,15.70
2013,07,23,01,08,15.70
2013,07,23,01,09,15.70
2013,07,23,01,10,15.70
2013,07,23,01,11,15.70
2013,07,23,01,12,15.70
2013,07,23,01,13,15.70
2013,07,23,01,14,15.70
2013,07,23,01,15,15.70
2013,07,23,01,16,15.70
2013,07,23,01,17,15.70
2013,07,23,01,18,15.70
2013,07,23,01,19,15.60
2013,07,23,01,20,15.60
2013,07,23,01,21,15.60
2013,07,23,01,22,15.60
2013,07,23,01,23,15.60
2013,07,23,01,24,15.60
2013,07,23,01,25,15.60
2013,07,23,01,26,15.60
2013,07,23,01,27,15.60
2013,07,23,01,28,15.60
2013,07,23,01,29,15.60
2013,07,23,01,30,15.50
2013,07,23,01,31,15.50
2013,07,23,01,32,15.40
2013,07,23,01,33,15.40
2013,07,23,01,34,15.40
2013,07,23,01,35,15.40
2013,07,23,01,36,15.40
2013,07,23,01,37,15.30
2013,07,23,01,38,15.30
2013,07,23,01,39,15.30
2013,07,23,01,40,15.30
2013,07,23,01,41,15.30
2013,07,23,01,42,15.20
2013,07,23,01,43,15.20
2013,07,23,01,44,15.20
2013,07,23,01,45,15.20
2013,07,23,01,46,15.20
2013,07,23,01,47,15.20
2013,07,23,01,48,15.20
2013,07,23,01,49,15.20
2013,07,23,01,50,15.10
2013,07,23,01,51,15.10
2013,07,23,01,52,15.10
2013,07,23,01,53,15.10
2013,07,23,01,54,15.10
2013,07,23,01,55,15.00
2013,07,23,01,56,15.00
2013,07,23,01,57,15.00
2013,07,23,01,58,15.00
2013,07,23,01,59,15.00
2013,07,23,02,00,15.00
2013,07,23,02,01,15.00
2013,07,23,02,02,15.00
2013,07,23,02,03,15.00
2013,07,23,02,04,15.00
2013,07,23,02,05,15.00
2013,07,23,02,06,15.00
2013,07,23,02,07,15.00
2013,07,23,02,08,15.10
2013,07,23,02,09,15.10
2013,07,23,02,10,15.10
2013,07,23,02,11,15.10
2013,07,23,02,12,15.10
2013,07,23,02,13,15.10
2013,07,23,02,14,15.10
2013,07,23,02,15,15.10
2013,07,23,02,16,15.00
2013,07,23,02,17,15.00
2013,07,23,02,18,15.00
2013,07,23,02,19,15.00
2013,07,23,02,20,15.00
2013,07,23,02,21,15.00
2013,07,23,02,22,14.90
2013,07,23,02,23,14.90
2013,07,23,02,24,14.90
2013,07,23,02,25,14.90
2013,07,23,02,26,14.90
2013,07,23,02,27,14.90
2013,07,23,02,28,14.90
2013,07,23,02,29,14.90
2013,07,23,02,30,14.90
2013,07,23,02,31,14.90
2013,07,23,02,32,14.90
2013,07,23,02,33,14.90
2013,07,23,02,34,14.90
2013,07,23,02,35,14.90
2013,07,23,02,36,14.90
2013,07,23,02,37,14.90
2013,07,23,02,38,14.90
2013,07,23,02,39,14.90
2013,07,23,02,40,14.90
2013,07,23,02,41,14.80
2013,07,23,02,42,14.80
2013,07,23,02,43,14.80
2013,07,23,02,44,14.80
2013,07,23,02,45,14.80
2013,07,23,02,46,14.80
2013,07,23,02,47,14.80
2013,07,23,02,48,14.80
2013,07,23,02,49,14.80
2013,07,23,02,50,14.80
2013,07,23,02,51,14.80
2013,07,23,02,52,14.80
2013,07,23,02,53,14.80
2013,07,23,02,54,14.80
2013,07,23,02,55,14.80
2013,07,23,02,56,14.80
2013,07,23,02,57,14.90
2013,07,23,02,58,14.90
2013,07,23,02,59,14.90
2013,07,23,03,00,14.90
2013,07,23,03,01,14.90
2013,07,23,03,02,14.90
2013,07,23,03,03,14.90
2013,07,23,03,04,14.90
2013,07,23,03,05,14.90
2013,07,23,03,06,14.90
2013,07,23,03,07,14.90
2013,07,23,03,08,14.90
2013,07,23,03,09,14.90
2013,07,23,03,10,14.90
2013,07,23,03,11,14.90
2013,07,23,03,12,14.90
2013,07,23,03,13,14.90
2013,07,23,03,14,14.80
2013,07,23,03,15,14.80
2013,07,23,03,16,14.80
2013,07,23,03,17,14.80
2013,07,23,03,18,14.80
2013,07,23,03,19,14.80
2013,07,23,03,20,14.80
2013,07,23,03,21,14.80
2013,07,23,03,22,14.80
2013,07,23,03,23,14.70
2013,07,23,03,24,14.70
2013,07,23,03,25,14.70
2013,07,23,03,26,14.70
2013,07,23,03,27,14.70
2013,07,23,03,28,14.60
2013,07,23,03,29,14.60
2013,07,23,03,30,14.60
2013,07,23,03,31,14.60
2013,07,23,03,32,14.60
2013,07,23,03,33,14.60
2013,07,23,03,34,14.60
2013,07,23,03,35,14.60
2013,07,23,03,36,14.60
2013,07,23,03,37,14.60
2013,07,23,03,38,14.60
2013,07,23,03,39,14.60
2013,07,23,03,40,14.50
2013,07,23,03,41,14.50
2013,07,23,03,42,14.50
2013,07,23,03,43,14.50
2013,07,23,03,44,14.50
2013,07,23,03,45,14.50
2013,07,23,03,46,14.50
2013,07,23,03,47,14.50
2013,07,23,03,48,14.40
2013,07,23,03,49,14.40
2013,07,23,03,50,14.40
2013,07,23,03,51,14.40
2013,07,23,03,52,14.40
2013,07,23,03,53,14.40
2013,07,23,03,54,14.40
2013,07,23,03,55,14.40
2013,07,23,03,56,14.40
2013,07,23,03,57,14.40
2013,07,23,03,58,14.40
2013,07,23,03,59,14.40
2013,07,23,04,00,14.40
2013,07,23,04,01,14.40
2013,07,23,04,02,14.30
2013,07,23,04,03,14.30
2013,07,23,04,04,14.30
2013,07,23,04,05,14.30
2013,07,23,04,06,14.30
2013,07,23,04,07,14.30
2013,07,23,04,08,14.30
2013,07,23,04,09,14.20
2013,07,23,04,10,14.20
2013,07,23,04,11,14.20
2013,07,23,04,12,14.20
2013,07,23,04,13,14.20
2013,07,23,04,14,14.20
2013,07,23,04,15,14.20
2013,07,23,04,16,14.10
2013,07,23,04,17,14.10
2013,07,23,04,18,14.10
2013,07,23,04,19,14.10
2013,07,23,04,20,14.10
2013,07,23,04,21,14.10
2013,07,23,04,22,14.10
2013,07,23,04,23,14.10
2013,07,23,04,24,14.10
2013,07,23,04,25,14.00
2013,07,23,04,26,14.00
2013,07,23,04,27,14.00
2013,07,23,04,28,14.00
2013,07,23,04,29,14.00
2013,07,23,04,30,14.00
2013,07,23,04,31,14.00
2013,07,23,04,32,13.90
2013,07,23,04,33,13.90
2013,07,23,04,34,13.90
2013,07,23,04,35,13.90
2013,07,23,04,36,13.90
2013,07,23,04,37,13.90
2013,07,23,04,38,13.90
2013,07,23,04,39,13.80
2013,07,23,04,40,13.80
2013,07,23,04,41,13.80
2013,07,23,04,42,13.80
2013,07,23,04,43,13.80
2013,07,23,04,44,13.80
2013,07,23,04,45,13.80
2013,07,23,04,46,13.80
2013,07,23,04,47,13.80
2013,07,23,04,48,13.80
2013,07,23,04,49,13.80
2013,07,23,04,50,13.80
2013,07,23,04,51,13.80
2013,07,23,04,52,13.80
2013,07,23,04,53,13.80
2013,07,23,04,54,13.80
2013,07,23,04,55,13.80
2013,07,23,04,56,13.80
2013,07,23,04,57,13.80
2013,07,23,04,58,13.80
2013,07,23,04,59,13.80
2013,07,23,05,00,13.80
2013,07,23,05,01,13.80
2013,07,23,05,02,13.70
2013,07,23,05,03,13.70
2013,07,23,05,04,13.70
2013,07,23,05,05,13.70
2013,07,23,05,06,13.70
2013,07,23,05,07,13.70
2013,07,23,05,08,13.60
2013,07,23,05,09,13.60
2013,07,23,05,10,13.60
2013,07,23,05,11,13.60
2013,07,23,05,12,13.50
2013,07,23,05,13,13.50
2013,07,23,05,14,13.40
2013,07,23,05,15,13.40
2013,07,23,05,16,13.40
2013,07,23,05,17,13.30
2013,07,23,05,18,13.20
2013,07,23,05,19,13.20
2013,07,23,05,20,13.10
2013,07,23,05,21,13.10
2013,07,23,05,22,13.00
2013,07,23,05,23,13.00
2013,07,23,05,24,13.00
2013,07,23,05,25,13.00
2013,07,23,05,26,13.00
2013,07,23,05,27,12.90
2013,07,23,05,28,12.90
2013,07,23,05,29,12.90
2013,07,23,05,30,12.90
2013,07,23,05,31,13.00
2013,07,23,05,32,12.90
2013,07,23,05,33,12.90
2013,07,23,05,34,12.90
2013,07,23,05,35,12.90
2013,07,23,05,36,12.90
2013,07,23,05,37,12.90
2013,07,23,05,38,12.90
2013,07,23,05,39,12.90
2013,07,23,05,40,12.90
2013,07,23,05,41,13.00
2013,07,23,05,42,13.00
2013,07,23,05,43,12.90
2013,07,23,05,44,12.90
2013,07,23,05,45,12.90
2013,07,23,05,46,12.90
2013,07,23,05,47,12.90
2013,07,23,05,48,12.90
2013,07,23,05,49,12.80
2013,07,23,05,50,12.80
2013,07,23,05,51,12.80
2013,07,23,05,52,12.80
2013,07,23,05,53,12.70
2013,07,23,05,54,12.70
2013,07,23,05,55,12.70
2013,07,23,05,56,12.70
2013,07,23,05,57,12.70
2013,07,23,05,58,12.70
2013,07,23,05,59,12.70
2013,07,23,06,00,12.70
2013,07,23,06,01,12.70
2013,07,23,06,02,12.70
2013,07,23,06,03,12.70
2013,07,23,06,04,12.70
2013,07,23,06,05,12.70
2013,07,23,06,06,12.80
2013,07,23,06,07,12.80
2013,07,23,06,08,12.80
2013,07,23,06,09,12.90
2013,07,23,06,10,12.90
2013,07,23,06,11,13.00
2013,07,23,06,12,13.00
2013,07,23,06,13,13.10
2013,07,23,06,14,13.10
2013,07,23,06,15,13.20
2013,07,23,06,16,13.20
2013,07,23,06,17,13.30
2013,07,23,06,18,13.30
2013,07,23,06,19,13.30
2013,07,23,06,20,13.30
2013,07,23,06,21,13.40
2013,07,23,06,22,13.40
2013,07,23,06,23,13.50
2013,07,23,06,24,13.60
2013,07,23,06,25,13.60
2013,07,23,06,26,13.70
2013,07,23,06,27,13.70
2013,07,23,06,28,13.80
2013,07,23,06,29,13.80
2013,07,23,06,30,13.80
2013,07,23,06,31,13.80
2013,07,23,06,32,13.80
2013,07,23,06,33,13.80
2013,07,23,06,34,14.00
2013,07,23,06,35,14.10
2013,07,23,06,36,14.20
2013,07,23,06,37,14.20
2013,07,23,06,38,14.30
2013,07,23,06,39,14.30
2013,07,23,06,40,14.40
2013,07,23,06,41,14.40
2013,07,23,06,42,14.50
2013,07,23,06,43,14.60
2013,07,23,06,44,14.60
2013,07,23,06,45,14.70
2013,07,23,06,46,14.70
2013,07,23,06,47,14.70
2013,07,23,06,48,14.80
2013,07,23,06,49,14.90
2013,07,23,06,50,15.00
2013,07,23,06,51,15.10
2013,07,23,06,52,15.10
2013,07,23,06,53,15.20
2013,07,23,06,54,15.20
2013,07,23,06,55,15.30
2013,07,23,06,56,15.30
2013,07,23,06,57,15.40
2013,07,23,06,58,15.40
2013,07,23,06,59,15.50
2013,07,23,07,00,15.50
2013,07,23,07,01,15.60
2013,07,23,07,02,15.60
2013,07,23,07,03,15.70
2013,07,23,07,04,15.80
2013,07,23,07,05,15.80
2013,07,23,07,06,15.90
2013,07,23,07,07,16.00
2013,07,23,07,08,16.00
2013,07,23,07,09,16.10
2013,07,23,07,10,16.10
2013,07,23,07,11,16.10
2013,07,23,07,12,16.20
2013,07,23,07,13,16.20
2013,07,23,07,14,16.30
2013,07,23,07,15,16.30
2013,07,23,07,16,16.30
2013,07,23,07,17,16.30
2013,07,23,07,18,16.40
2013,07,23,07,19,16.40
2013,07,23,07,20,16.50
2013,07,23,07,21,16.50
2013,07,23,07,22,16.60
2013,07,23,07,23,16.60
2013,07,23,07,24,16.60
2013,07,23,07,25,16.60
2013,07,23,07,26,16.70
2013,07,23,07,27,16.70
2013,07,23,07,28,16.70
2013,07,23,07,29,16.70
2013,07,23,07,30,16.70
2013,07,23,07,31,16.80
2013,07,23,07,32,16.80
2013,07,23,07,33,16.80
2013,07,23,07,34,16.90
2013,07,23,07,35,16.90
2013,07,23,07,36,17.00
2013,07,23,07,37,17.00
2013,07,23,07,38,17.10
2013,07,23,07,39,17.10
2013,07,23,07,40,17.10
2013,07,23,07,41,17.20
2013,07,23,07,42,17.20
2013,07,23,07,43,17.20
2013,07,23,07,44,17.30
2013,07,23,07,45,17.30
2013,07,23,07,46,17.30
2013,07,23,07,47,17.40
2013,07,23,07,48,17.40
2013,07,23,07,49,17.50
2013,07,23,07,50,17.50
2013,07,23,07,51,17.60
2013,07,23,07,52,17.60
2013,07,23,07,53,17.70
2013,07,23,07,54,17.70
2013,07,23,07,55,17.80
2013,07,23,07,56,17.80
2013,07,23,07,57,17.90
2013,07,23,07,58,18.00
2013,07,23,07,59,18.00
2013,07,23,08,00,18.10
2013,07,23,08,01,18.10
2013,07,23,08,02,18.20
2013,07,23,08,03,18.20
2013,07,23,08,04,18.30
2013,07,23,08,05,18.30
2013,07,23,08,06,18.40
2013,07,23,08,07,18.50
2013,07,23,08,08,18.60
2013,07,23,08,09,18.70
2013,07,23,08,10,18.70
2013,07,23,08,11,18.80
2013,07,23,08,12,18.80
2013,07,23,08,13,18.90
2013,07,23,08,14,19.00
2013,07,23,08,15,19.10
2013,07,23,08,16,19.10
2013,07,23,08,17,19.20
2013,07,23,08,18,19.20
2013,07,23,08,19,19.30
2013,07,23,08,20,19.30
2013,07,23,08,21,19.40
2013,07,23,08,22,19.50
2013,07,23,08,23,19.50
2013,07,23,08,24,19.60
2013,07,23,08,25,19.70
2013,07,23,08,26,19.70
2013,07,23,08,27,19.80
2013,07,23,08,28,19.80
2013,07,23,08,29,19.80
2013,07,23,08,30,19.80
2013,07,23,08,31,19.90
2013,07,23,08,32,19.90
2013,07,23,08,33,20.00
2013,07,23,08,34,20.00
2013,07,23,08,35,20.10
2013,07,23,08,36,20.10
2013,07,23,08,37,20.20
2013,07,23,08,38,20.20
2013,07,23,08,39,20.20
2013,07,23,08,40,20.20
2013,07,23,08,41,20.20
2013,07,23,08,42,20.20
2013,07,23,08,43,20.20
2013,07,23,08,44,20.20
2013,07,23,08,45,20.20
2013,07,23,08,46,20.20
2013,07,23,08,47,20.10
2013,07,23,08,48,20.10
2013,07,23,08,49,20.10
2013,07,23,08,50,20.10
2013,07,23,08,51,20.10
2013,07,23,08,52,20.10
2013,07,23,08,53,20.20
2013,07,23,08,54,20.30
2013,07,23,08,55,20.40
2013,07,23,08,56,20.40
2013,07,23,08,57,20.50
2013,07,23,08,58,20.60
2013,07,23,08,59,20.60
2013,07,23,09,00,20.70
2013,07,23,09,01,20.70
2013,07,23,09,02,20.80
2013,07,23,09,03,20.80
2013,07,23,09,04,20.80
2013,07,23,09,05,20.90
2013,07,23,09,06,20.90
2013,07,23,09,07,20.90
2013,07,23,09,08,20.90
2013,07,23,09,09,20.90
2013,07,23,09,10,20.90
2013,07,23,09,11,20.90
2013,07,23,09,12,20.90
2013,07,23,09,13,20.90
2013,07,23,09,14,21.00
2013,07,23,09,15,21.00
2013,07,23,09,16,21.20
2013,07,23,09,17,21.30
2013,07,23,09,18,21.30
2013,07,23,09,19,21.30
2013,07,23,09,20,21.30
2013,07,23,09,21,21.30
2013,07,23,09,22,21.30
2013,07,23,09,23,21.30
2013,07,23,09,24,21.30
2013,07,23,09,25,21.30
2013,07,23,09,26,21.30
2013,07,23,09,27,21.30
2013,07,23,09,28,21.40
2013,07,23,09,29,21.40
2013,07,23,09,30,21.50
2013,07,23,09,31,21.50
2013,07,23,09,32,21.50
2013,07,23,09,33,21.50
2013,07,23,09,34,21.40
2013,07,23,09,35,21.40
2013,07,23,09,36,21.50
2013,07,23,09,37,21.60
2013,07,23,09,38,21.60
2013,07,23,09,39,21.70
2013,07,23,09,40,21.70
2013,07,23,09,41,21.70
2013,07,23,09,42,21.70
2013,07,23,09,43,21.60
2013,07,23,09,44,21.60
2013,07,23,09,45,21.60
2013,07,23,09,46,21.60
2013,07,23,09,47,21.60
2013,07,23,09,48,21.70
2013,07,23,09,49,21.80
2013,07,23,09,50,21.80
2013,07,23,09,51,21.90
2013,07,23,09,52,21.90
2013,07,23,09,53,22.00
2013,07,23,09,54,22.00
2013,07,23,09,55,22.10
2013,07,23,09,56,22.00
2013,07,23,09,57,22.00
2013,07,23,09,58,21.90
2013,07,23,09,59,21.90
2013,07,23,10,00,21.90
2013,07,23,10,01,21.90
2013,07,23,10,02,21.90
2013,07,23,10,03,21.90
2013,07,23,10,04,22.00
2013,07,23,10,05,22.10
2013,07,23,10,06,22.10
2013,07,23,10,07,22.20
2013,07,23,10,08,22.20
2013,07,23,10,09,22.20
2013,07,23,10,10,22.30
2013,07,23,10,11,22.30
2013,07,23,10,12,22.30
2013,07,23,10,13,22.40
2013,07,23,10,14,22.40
2013,07,23,10,15,22.40
2013,07,23,10,16,22.40
2013,07,23,10,17,22.50
2013,07,23,10,18,22.50
2013,07,23,10,19,22.60
2013,07,23,10,20,22.70
2013,07,23,10,21,22.70
2013,07,23,10,22,22.80
2013,07,23,10,23,22.80
2013,07,23,10,24,22.80
2013,07,23,10,25,22.80
2013,07,23,10,26,22.80
2013,07,23,10,27,22.80
2013,07,23,10,28,22.80
2013,07,23,10,29,22.90
2013,07,23,10,30,23.00
2013,07,23,10,31,23.00
2013,07,23,10,32,23.00
2013,07,23,10,33,22.90
2013,07,23,10,34,22.70
2013,07,23,10,35,22.60
2013,07,23,10,36,22.60
2013,07,23,10,37,22.60
2013,07,23,10,38,22.70
2013,07,23,10,39,22.80
2013,07,23,10,40,22.70
2013,07,23,10,41,22.60
2013,07,23,10,42,22.60
2013,07,23,10,43,22.70
2013,07,23,10,44,22.80
2013,07,23,10,45,22.90
2013,07,23,10,46,23.00
2013,07,23,10,47,23.10
2013,07,23,10,48,23.20
2013,07,23,10,49,23.10
2013,07,23,10,50,23.10
2013,07,23,10,51,23.20
2013,07,23,10,52,23.30
2013,07,23,10,53,23.50
2013,07,23,10,54,23.60
2013,07,23,10,55,23.60
2013,07,23,10,56,23.50
2013,07,23,10,57,23.50
2013,07,23,10,58,23.50
2013,07,23,10,59,23.40
2013,07,23,11,00,23.40
2013,07,23,11,01,23.40
2013,07,23,11,02,23.50
2013,07,23,11,03,23.60
2013,07,23,11,04,23.60
2013,07,23,11,05,23.60
2013,07,23,11,06,23.50
2013,07,23,11,07,23.50
2013,07,23,11,08,23.40
2013,07,23,11,09,23.50
2013,07,23,11,10,23.50
2013,07,23,11,11,23.50
2013,07,23,11,12,23.60
2013,07,23,11,13,23.80
2013,07,23,11,14,24.00
2013,07,23,11,15,24.00
2013,07,23,11,16,24.00
2013,07,23,11,17,23.90
2013,07,23,11,18,23.80
2013,07,23,11,19,23.90
2013,07,23,11,20,23.90
2013,07,23,11,21,23.90
2013,07,23,11,22,23.90
2013,07,23,11,23,24.00
2013,07,23,11,24,24.10
2013,07,23,11,25,24.00
2013,07,23,11,26,24.10
2013,07,23,11,27,24.20
2013,07,23,11,28,24.20
2013,07,23,11,29,24.30
2013,07,23,11,30,24.10
2013,07,23,11,31,24.00
2013,07,23,11,32,23.80
2013,07,23,11,33,23.60
2013,07,23,11,34,23.40
2013,07,23,11,35,23.30
2013,07,23,11,36,23.20
2013,07,23,11,37,23.20
2013,07,23,11,38,23.30
2013,07,23,11,39,23.30
2013,07,23,11,40,23.40
2013,07,23,11,41,23.50
2013,07,23,11,42,23.50
2013,07,23,11,43,23.60
2013,07,23,11,44,23.70
2013,07,23,11,45,23.70
2013,07,23,11,46,23.70
2013,07,23,11,47,23.80
2013,07,23,11,48,23.80
2013,07,23,11,49,23.80
2013,07,23,11,50,23.90
2013,07,23,11,51,23.90
2013,07,23,11,52,24.10
2013,07,23,11,53,24.20
2013,07,23,11,54,24.20
2013,07,23,11,55,24.10
2013,07,23,11,56,24.10
2013,07,23,11,57,24.20
2013,07,23,11,58,24.20
2013,07,23,11,59,24.30
2013,07,23,12,00,24.30
2013,07,23,12,01,24.30
2013,07,23,12,02,24.10
2013,07,23,12,03,24.00
2013,07,23,12,04,24.00
2013,07,23,12,05,24.10
2013,07,23,12,06,24.00
2013,07,23,12,07,24.00
2013,07,23,12,08,23.90
2013,07,23,12,09,23.90
2013,07,23,12,10,23.90
2013,07,23,12,11,23.90
2013,07,23,12,12,24.10
2013,07,23,12,13,24.20
2013,07,23,12,14,24.20
2013,07,23,12,15,24.20
2013,07,23,12,16,24.30
2013,07,23,12,17,24.30
2013,07,23,12,18,24.30
2013,07,23,12,19,24.30
2013,07,23,12,20,24.20
2013,07,23,12,21,24.00
2013,07,23,12,22,23.90
2013,07,23,12,23,24.00
2013,07,23,12,24,24.10
2013,07,23,12,25,24.20
2013,07,23,12,26,24.20
2013,07,23,12,27,24.30
2013,07,23,12,28,24.40
2013,07,23,12,29,24.50
2013,07,23,12,30,24.60
2013,07,23,12,31,24.60
2013,07,23,12,32,24.80
2013,07,23,12,33,24.90
2013,07,23,12,34,25.20
2013,07,23,12,35,25.40
2013,07,23,12,36,25.40
2013,07,23,12,37,25.40
2013,07,23,12,38,25.30
2013,07,23,12,39,25.30
2013,07,23,12,40,25.20
2013,07,23,12,41,25.20
2013,07,23,12,42,25.30
2013,07,23,12,43,25.30
2013,07,23,12,44,25.30
2013,07,23,12,45,25.30
2013,07,23,12,46,25.30
2013,07,23,12,47,25.30
2013,07,23,12,48,25.30
2013,07,23,12,49,25.40
2013,07,23,12,50,25.30
2013,07,23,12,51,25.20
2013,07,23,12,52,25.20
2013,07,23,12,53,25.30
2013,07,23,12,54,25.40
2013,07,23,12,55,25.40
2013,07,23,12,56,25.40
2013,07,23,12,57,25.40
2013,07,23,12,58,25.20
2013,07,23,12,59,25.10
2013,07,23,13,00,25.10
2013,07,23,13,01,25.10
2013,07,23,13,02,25.20
2013,07,23,13,03,25.40
2013,07,23,13,04,25.50
2013,07,23,13,05,25.60
2013,07,23,13,06,25.70
2013,07,23,13,07,25.60
2013,07,23,13,08,25.60
2013,07,23,13,09,25.60
2013,07,23,13,10,25.70
2013,07,23,13,11,25.60
2013,07,23,13,12,25.70
2013,07,23,13,13,25.70
2013,07,23,13,14,25.80
2013,07,23,13,15,25.90
2013,07,23,13,16,26.00
2013,07,23,13,17,26.00
2013,07,23,13,18,26.00
2013,07,23,13,19,26.00
2013,07,23,13,20,25.90
2013,07,23,13,21,25.70
2013,07,23,13,22,25.60
2013,07,23,13,23,25.50
2013,07,23,13,24,25.50
2013,07,23,13,25,25.50
2013,07,23,13,26,25.50
2013,07,23,13,27,25.60
2013,07,23,13,28,25.60
2013,07,23,13,29,25.60
2013,07,23,13,30,25.60
2013,07,23,13,31,25.70
2013,07,23,13,32,25.80
2013,07,23,13,33,25.80
2013,07,23,13,34,25.80
2013,07,23,13,35,25.80
2013,07,23,13,36,25.80
2013,07,23,13,37,25.70
2013,07,23,13,38,25.70
2013,07,23,13,39,25.60
2013,07,23,13,40,25.60
2013,07,23,13,41,25.70
2013,07,23,13,42,25.70
2013,07,23,13,43,25.70
2013,07,23,13,44,25.50
2013,07,23,13,45,25.50
2013,07,23,13,46,25.40
2013,07,23,13,47,25.30
2013,07,23,13,48,25.30
2013,07,23,13,49,25.40
2013,07,23,13,50,25.50
2013,07,23,13,51,25.60
2013,07,23,13,52,25.70
2013,07,23,13,53,25.70
2013,07,23,13,54,25.70
2013,07,23,13,55,25.70
2013,07,23,13,56,25.80
2013,07,23,13,57,26.00
2013,07,23,13,58,26.10
2013,07,23,13,59,26.20
2013,07,23,14,00,26.20
2013,07,23,14,01,26.20
2013,07,23,14,02,26.20
2013,07,23,14,03,26.10
2013,07,23,14,04,26.00
2013,07,23,14,05,26.00
2013,07,23,14,06,26.00
2013,07,23,14,07,26.00
2013,07,23,14,08,26.00
2013,07,23,14,09,26.10
2013,07,23,14,10,26.00
2013,07,23,14,11,25.90
2013,07,23,14,12,25.70
2013,07,23,14,13,25.60
2013,07,23,14,14,25.60
2013,07,23,14,15,25.50
2013,07,23,14,16,25.40
2013,07,23,14,17,25.50
2013,07,23,14,18,25.60
2013,07,23,14,19,25.70
2013,07,23,14,20,25.90
2013,07,23,14,21,26.00
2013,07,23,14,22,25.90
2013,07,23,14,23,25.80
2013,07,23,14,24,25.60
2013,07,23,14,25,25.60
2013,07,23,14,26,25.60
2013,07,23,14,27,25.60
2013,07,23,14,28,25.70
2013,07,23,14,29,25.70
2013,07,23,14,30,25.80
2013,07,23,14,31,25.90
2013,07,23,14,32,25.90
2013,07,23,14,33,26.00
2013,07,23,14,34,26.00
2013,07,23,14,35,26.00
2013,07,23,14,36,26.00
2013,07,23,14,37,26.00
2013,07,23,14,38,26.00
2013,07,23,14,39,26.10
2013,07,23,14,40,26.10
2013,07,23,14,41,26.20
2013,07,23,14,42,26.30
2013,07,23,14,43,26.40
2013,07,23,14,44,26.40
2013,07,23,14,45,26.30
2013,07,23,14,46,26.40
2013,07,23,14,47,26.30
2013,07,23,14,48,26.30
2013,07,23,14,49,26.30
2013,07,23,14,50,26.30
2013,07,23,14,51,26.40
2013,07,23,14,52,26.50
2013,07,23,14,53,26.50
2013,07,23,14,54,26.40
2013,07,23,14,55,26.20
2013,07,23,14,56,26.10
2013,07,23,14,57,26.00
2013,07,23,14,58,26.10
2013,07,23,14,59,26.10
2013,07,23,15,00,26.10
2013,07,23,15,01,26.20
2013,07,23,15,02,26.30
2013,07,23,15,03,26.30
2013,07,23,15,04,26.40
2013,07,23,15,05,26.50
2013,07,23,15,06,26.50
2013,07,23,15,07,26.70
2013,07,23,15,08,26.70
2013,07,23,15,09,26.80
2013,07,23,15,10,26.80
2013,07,23,15,11,26.80
2013,07,23,15,12,26.80
2013,07,23,15,13,26.90
2013,07,23,15,14,26.90
2013,07,23,15,15,26.80
2013,07,23,15,16,26.80
2013,07,23,15,17,26.80
2013,07,23,15,18,26.90
2013,07,23,15,19,26.90
2013,07,23,15,20,26.80
2013,07,23,15,21,26.70
2013,07,23,15,22,26.70
2013,07,23,15,23,26.60
2013,07,23,15,24,26.50
2013,07,23,15,25,26.40
2013,07,23,15,26,26.40
2013,07,23,15,27,26.50
2013,07,23,15,28,26.50
2013,07,23,15,29,26.60
2013,07,23,15,30,26.60
2013,07,23,15,31,26.60
2013,07,23,15,32,26.60
2013,07,23,15,33,26.70
2013,07,23,15,34,26.70
2013,07,23,15,35,26.80
2013,07,23,15,36,26.90
2013,07,23,15,37,26.80
2013,07,23,15,38,26.70
2013,07,23,15,39,26.60
2013,07,23,15,40,26.60
2013,07,23,15,41,26.60
2013,07,23,15,42,26.60
2013,07,23,15,43,26.60
2013,07,23,15,44,26.70
2013,07,23,15,45,26.80
2013,07,23,15,46,26.90
2013,07,23,15,47,27.00
2013,07,23,15,48,27.00
2013,07,23,15,49,27.10
2013,07,23,15,50,27.10
2013,07,23,15,51,27.10
2013,07,23,15,52,27.20
2013,07,23,15,53,27.20
2013,07,23,15,54,27.30
2013,07,23,15,55,27.30
2013,07,23,15,56,27.40
2013,07,23,15,57,27.50
2013,07,23,15,58,27.60
2013,07,23,15,59,27.60
2013,07,23,16,00,27.60
2013,07,23,16,01,27.50
2013,07,23,16,02,27.50
2013,07,23,16,03,27.50
2013,07,23,16,04,27.50
2013,07,23,16,05,27.50
2013,07,23,16,06,27.60
2013,07,23,16,07,27.60
2013,07,23,16,08,27.70
2013,07,23,16,09,27.80
2013,07,23,16,10,27.80
2013,07,23,16,11,27.80
2013,07,23,16,12,27.90
2013,07,23,16,13,28.10
2013,07,23,16,14,28.10
2013,07,23,16,15,28.20
2013,07,23,16,16,28.30
2013,07,23,16,17,28.30
2013,07,23,16,18,28.30
2013,07,23,16,19,28.30
2013,07,23,16,20,28.30
2013,07,23,16,21,28.40
2013,07,23,16,22,28.40
2013,07,23,16,23,28.40
2013,07,23,16,24,28.30
2013,07,23,16,25,28.10
2013,07,23,16,26,28.00
2013,07,23,16,27,27.90
2013,07,23,16,28,27.90
2013,07,23,16,29,27.90
2013,07,23,16,30,28.00
2013,07,23,16,31,28.10
2013,07,23,16,32,28.20
2013,07,23,16,33,28.30
2013,07,23,16,34,28.30
2013,07,23,16,35,28.30
2013,07,23,16,36,28.50
2013,07,23,16,37,28.60
2013,07,23,16,38,28.80
2013,07,23,16,39,28.80
2013,07,23,16,40,28.80
2013,07,23,16,41,28.80
2013,07,23,16,42,28.80
2013,07,23,16,43,28.80
2013,07,23,16,44,28.70
2013,07,23,16,45,28.70
2013,07,23,16,46,28.60
2013,07,23,16,47,28.50
2013,07,23,16,48,28.40
2013,07,23,16,49,28.40
2013,07,23,16,50,28.30
2013,07,23,16,51,28.20
2013,07,23,16,52,28.10
2013,07,23,16,53,27.90
2013,07,23,16,54,27.80
2013,07,23,16,55,27.80
2013,07,23,16,56,27.90
2013,07,23,16,57,27.90
2013,07,23,16,58,28.00
2013,07,23,16,59,28.00
2013,07,23,17,00,28.10
2013,07,23,17,01,28.20
2013,07,23,17,02,28.20
2013,07,23,17,03,28.40
2013,07,23,17,04,28.50
2013,07,23,17,05,28.70
2013,07,23,17,06,28.80
2013,07,23,17,07,28.90
2013,07,23,17,08,28.90
2013,07,23,17,09,28.80
2013,07,23,17,10,28.70
2013,07,23,17,11,28.80
2013,07,23,17,12,28.80
2013,07,23,17,13,28.90
2013,07,23,17,14,28.90
2013,07,23,17,15,29.00
2013,07,23,17,16,29.00
2013,07,23,17,17,28.90
2013,07,23,17,18,28.90
2013,07,23,17,19,28.90